[[[{"header":{"parameterUnit":"kt","parameterCategory":2,"dx":1,"dy":1,"la1":30.253999710083008,"la2":30.299108505249023,"lo1":-89.0895004272461,"lo2":-89.04439544677734,"nx":28,"ny":28,"refTime":"2022-10-07T21:00:00:Z","depth":0,"parameterNumber":1,"parameterNumberName":"U-component_of_WINDS"},"data":[-1.0128,-1.0211,-1.0217,-1.0315,-1.0337,-1.0405,-1.0431,-1.0465,-1.0494,-1.0575,-1.0623,-1.0638,-1.0669,-1.0727,-1.0779,-1.0785,-1.0807,-1.0831,-1.0834,-1.0718,-1.0702,-1.0688,-1.0669,-1.0836,-1.0836,-1.0954,-1.0955,-1.0956,-1.0042,-1.0065,-1.0118,-1.0174,-1.022,-1.02,-1.0242,-1.0282,-1.0343,-1.0379,-1.0427,-1.0499,-1.0556,-1.058,-1.0636,-1.0675,-1.0669,-1.069,-1.0688,-1.0694,-1.0569,-1.055,-1.0694,-1.0693,-1.0693,-1.0693,-1.0693,-1.0693,-0.9887,-0.9936,-0.9974,-1.0032,-1.0062,-1.0099,-1.0147,-1.0164,-1.0216,-1.0276,-1.0273,-1.0343,-1.038,-1.0451,-1.0476,-1.053,-1.0509,-1.0534,-1.0541,-1.0547,-1.0554,-1.0385,-1.054,-1.054,-1.0539,-1.0539,-1.0539,0,-0.9776,-0.9778,-0.983,-0.9883,-0.9926,-0.9968,-1.0008,-1.0037,-1.0044,-1.0087,-1.0149,-1.0186,-1.0259,-1.0319,-1.0373,-1.0395,-1.038,-1.0378,-1.0396,-1.04,-1.0396,-1.0401,-1.02,-1.0375,-1.0373,-1.0372,-1.0371,-1.0371,-0.9622,-0.9678,-0.9721,-0.9756,-0.978,-0.9837,-0.9872,-0.9873,-0.9911,-0.9959,-1.0003,-1.0062,-1.011,-1.0209,-1.0229,-1.0284,-1.0278,-1.0344,-1.0286,-1.0286,-1.0281,-1.0279,-1.0285,-1.0356,-1.0358,-1.036,-1.0361,0,-0.9535,-0.9545,-0.9635,-0.9671,-0.9682,-0.9741,-0.9772,-0.9821,-0.9832,-0.9902,-0.9918,-0.9936,-0.9998,-1.0006,-1.0078,-1.0081,-1.018,-1.0171,-1.0167,-1.0166,-1.0228,-1.0223,-1.0423,-1.045,-1.0275,-1.0277,-1.0278,0,-0.9409,-0.9483,-0.9494,-0.9545,-0.9627,-0.9627,-0.9708,-0.9726,-0.9758,-0.9813,-0.9796,-0.9848,-0.9851,-0.9904,-0.9909,-0.999,-1.0003,-1.0011,-1.0012,-1.0014,-1.0013,-1.0036,-1.0029,-1.0009,-1.0008,-1.0007,-1.0006,0,-0.9273,-0.9365,-0.9448,-0.9471,-0.9518,-0.9557,-0.9578,-0.9614,-0.9649,-0.9695,-0.9718,-0.9771,-0.9802,-0.9843,-0.9849,-0.9809,-0.9948,-0.9895,-0.9957,-0.9957,-0.9989,-0.9987,-1.016,-1.0005,-1.0004,-1.0004,-1.0004,0,-0.9173,-0.922,-0.9339,-0.9377,-0.9402,-0.9456,-0.9509,-0.9558,-0.9598,-0.9604,-0.964,-0.9631,-0.9702,-0.9649,-0.9747,-0.9694,-0.9725,-0.9738,-0.9743,-0.9752,-0.9693,-0.9792,-0.9954,-0.9972,-0.9757,-0.9755,-0.9753,0,-0.9016,-0.9138,-0.9139,-0.9252,-0.931,-0.9288,-0.9349,-0.9384,-0.9398,-0.9449,-0.9464,-0.9523,-0.9485,-0.9505,-0.9551,-0.957,-0.9638,-0.956,-0.9636,-0.9639,-0.9629,-0.9777,-0.98,-0.9917,-0.9727,-0.973,-0.9732,0,-0.8896,-0.8952,-0.8972,-0.8998,-0.9045,-0.9094,-0.9163,-0.9221,-0.9255,-0.9296,-0.9356,-0.9437,-0.9412,-0.9445,-0.9444,-0.9493,-0.9592,-0.946,-0.9461,-0.9485,-0.9714,-0.9736,-0.9755,-0.958,-0.9583,-0.9586,-0.9711,0,-0.8746,-0.8808,-0.8862,-0.8921,-0.8959,-0.903,-0.904,-0.9079,-0.9074,-0.9087,-0.9173,-0.9205,-0.9265,-0.9289,-0.9284,-0.9392,-0.9376,-0.9349,-0.9301,-0.9397,-0.9439,-0.9456,-0.9237,-0.9236,-0.9235,-0.9234,0,0,-0.8594,-0.8684,-0.8683,-0.875,-0.8783,-0.876,-0.8835,-0.8864,-0.8925,-0.8948,-0.892,-0.9041,-0.9068,-0.9172,-0.9203,-0.9226,-0.9247,-0.9214,-0.935,-0.9363,-0.9375,-0.942,-0.9437,-0.9232,-0.9231,-0.9231,-0.9231,0,-0.8542,-0.8569,-0.8643,-0.8673,-0.8718,-0.8728,-0.8746,-0.8786,-0.8799,-0.8883,-0.8864,-0.8916,-0.9013,-0.9045,-0.9074,-0.92,-0.9184,-0.9217,-0.9282,-0.9338,-0.9353,-0.9366,-0.9412,-0.9428,-0.9228,-0.9228,-0.9228,0,-0.8427,-0.8456,-0.8493,-0.8566,-0.8595,-0.8655,-0.8606,-0.8671,-0.8716,-0.8689,-0.8773,-0.8793,-0.8836,-0.8933,-0.8976,-0.8952,-0.9126,-0.9073,-0.908,-0.9086,-0.9141,-0.9158,-0.9174,-0.897,-0.8969,-0.8968,0,0,-0.8381,-0.8438,-0.8471,-0.8555,-0.8575,-0.8592,-0.8625,-0.8623,-0.8663,-0.8679,-0.8704,-0.8743,-0.8799,-0.8837,-0.889,-0.8994,-0.9004,-0.9041,-0.9053,-0.9063,-0.9074,-0.9131,-0.9148,-0.8965,-0.8965,-0.8965,0,0,-0.8359,-0.84,-0.8388,-0.8487,-0.8525,-0.8563,-0.8615,-0.8601,-0.865,-0.8643,-0.8644,-0.8655,-0.8745,-0.8765,-0.8716,-0.8873,-0.8824,-0.8836,-0.8857,-0.8872,-0.8884,-0.8879,-0.8672,0,0,0,0,0,-0.8312,-0.8395,-0.8383,-0.8401,-0.8494,-0.8569,-0.8581,-0.8584,-0.8549,-0.859,-0.8609,-0.8589,-0.8739,-0.8696,-0.8714,-0.8769,-0.8919,-0.8927,-0.8935,-0.8987,-0.9003,-0.9016,0,0,0,0,0,0,-0.8319,-0.8341,-0.8381,-0.8423,-0.8444,-0.8566,-0.8508,-0.8511,-0.8545,-0.854,-0.8585,-0.859,-0.8594,-0.8687,-0.8703,-0.8756,-0.8666,-0.8922,-0.8929,-0.8935,-0.8992,-0.9005,-0.9016,0,0,0,0,0,-0.8324,-0.8342,-0.849,-0.8422,-0.844,-0.8463,-0.8505,-0.8507,-0.8533,-0.8563,-0.8567,-0.8532,-0.8595,-0.8609,-0.8696,-0.8748,-0.8655,-0.8661,-0.8927,-0.8932,-0.8937,-0.8998,0,0,0,0,0,0,-0.8329,-0.8345,-0.8494,-0.8499,-0.8391,-0.8456,-0.8467,-0.8504,-0.8554,-0.8559,-0.851,-0.8505,-0.8597,-0.8608,-0.8619,-0.8745,-0.8645,-0.8652,-0.8655,-0.8931,-0.8935,-0.8939,0,0,0,0,0,0,-0.8335,-0.835,-0.8497,-0.8457,-0.8458,-0.845,-0.8459,-0.8534,-0.8555,-0.8498,-0.8496,-0.8507,-0.8581,-0.8607,-0.8616,-0.8732,-0.8638,-0.8644,-0.8648,-0.8651,-0.8934,-0.8938,0,0,0,0,0,0,-0.8341,-0.8354,-0.8456,-0.8457,-0.8458,-0.8521,-0.8516,-0.8611,-0.8521,-0.8496,-0.8513,-0.8509,-0.8581,-0.859,-0.8614,-0.8726,-0.873,-0.8638,-0.8643,-0.8645,-0.8647,0,0,0,0,0,0,0,-0.8347,-0.8262,-0.846,-0.8456,-0.8457,-0.8551,-0.8553,-0.8555,-0.852,-0.8517,-0.8514,-0.8511,-0.8604,-0.8611,-0.8617,-0.8722,0,0,-0.8638,-0.8641,0,0,0,0,0,0,0,0,-0.8257,-0.8261,-0.8461,-0.8462,-0.8463,-0.8552,-0.8553,-0.8554,-0.852,-0.8517,-0.8515,-0.8512,-0.8606,-0.8611,-0.8617,0,0,0,0,0,0,0,0,0,0,0,0,0,0,0,-0.8461,-0.8462,0,-0.8552,-0.8553,-0.8554,-0.8519,-0.8517,-0.8515,-0.8513,-0.8607,-0.8612,-0.8616,0,0,0,0,0,0,0,0,0,0,0,0,0,0,0,0,0,0,0,0,0,0,0,0,0,0,0,0,0,0,0,0,0,0,0,0,0,0,0,0,0,0,0,0,0,0,0,0,0,0,0,0,0,0,0,0,0,0,0,0,0,0,0,0,0,0,0,0,0]}],[{"header":{"parameterUnit":"kt","parameterCategory":2,"dx":1,"dy":1,"la1":30.253999710083008,"la2":30.299108505249023,"lo1":-89.0895004272461,"lo2":-89.04439544677734,"nx":28,"ny":28,"refTime":"2022-10-07T21:00:00:Z","depth":0,"parameterNumber":2,"parameterNumberName":"V-component_of_WINDS"},"data":[-3.8301,-3.8417,-3.8441,-3.8584,-3.8629,-3.8731,-3.8775,-3.8834,-3.8887,-3.901,-3.9085,-3.9119,-3.918,-3.9274,-3.9356,-3.9369,-3.9404,-3.9428,-3.944,-3.931,-3.9293,-3.9278,-3.9253,-3.9434,-3.9434,-3.9573,-3.9574,-3.9575,-3.8206,-3.8252,-3.8334,-3.843,-3.8501,-3.8492,-3.8566,-3.8626,-3.8717,-3.8782,-3.8856,-3.8966,-3.9055,-3.9109,-3.9198,-3.9253,-3.9254,-3.9276,-3.9274,-3.9284,-3.9145,-3.9118,-3.9273,-3.9273,-3.9273,-3.9273,-3.9273,-3.9273,-3.8039,-3.8107,-3.8179,-3.8268,-3.8322,-3.8386,-3.8455,-3.8496,-3.8576,-3.8673,-3.8684,-3.8786,-3.8855,-3.8973,-3.9018,-3.9099,-3.9079,-3.911,-3.9118,-3.9127,-3.9134,-3.8936,-3.9114,-3.9114,-3.9113,-3.9113,-3.9113,0,-3.7925,-3.794,-3.802,-3.8107,-3.8173,-3.8243,-3.831,-3.8353,-3.8392,-3.8456,-3.8551,-3.8609,-3.8724,-3.8815,-3.8903,-3.8944,-3.8942,-3.8943,-3.8965,-3.8964,-3.8952,-3.8963,-3.8738,-3.8938,-3.8937,-3.8936,-3.8935,-3.8934,-3.7761,-3.7836,-3.7922,-3.7975,-3.8018,-3.8102,-3.8157,-3.8186,-3.8243,-3.8329,-3.8387,-3.8479,-3.8554,-3.87,-3.8747,-3.8832,-3.8832,-3.8907,-3.8845,-3.884,-3.8838,-3.8834,-3.8843,-3.8919,-3.8921,-3.8923,-3.8924,0,-3.7667,-3.7705,-3.7829,-3.7906,-3.7928,-3.8005,-3.8071,-3.8139,-3.8171,-3.8269,-3.8293,-3.8344,-3.8436,-3.847,-3.8581,-3.8596,-3.8726,-3.8721,-3.8703,-3.8705,-3.8778,-3.8772,-3.9002,-3.9034,-3.8843,-3.8845,-3.8847,0,-3.7544,-3.7641,-3.7692,-3.7762,-3.7871,-3.7898,-3.8005,-3.8043,-3.8103,-3.818,-3.8182,-3.8255,-3.8287,-3.8365,-3.8387,-3.8498,-3.8518,-3.8538,-3.8543,-3.854,-3.8538,-3.8572,-3.8565,-3.8548,-3.8547,-3.8546,-3.8545,0,-3.7396,-3.7535,-3.7649,-3.7687,-3.7778,-3.7831,-3.7871,-3.7938,-3.7991,-3.8065,-3.81,-3.8184,-3.823,-3.8295,-3.8324,-3.8281,-3.8459,-3.8406,-3.8479,-3.8479,-3.852,-3.8517,-3.8709,-3.8543,-3.8543,-3.8542,-3.8542,0,-3.7303,-3.7378,-3.7536,-3.7613,-3.7648,-3.7722,-3.7807,-3.7878,-3.7948,-3.7968,-3.8026,-3.8032,-3.813,-3.8075,-3.8211,-3.8148,-3.8194,-3.822,-3.8226,-3.824,-3.8179,-3.8287,-3.8464,-3.8485,-3.8249,-3.8246,-3.8244,0,-3.7125,-3.7293,-3.7318,-3.7466,-3.7549,-3.7548,-3.763,-3.7691,-3.7724,-3.7799,-3.7834,-3.7919,-3.7885,-3.7917,-3.7979,-3.802,-3.8101,-3.8009,-3.8118,-3.8122,-3.8104,-3.8266,-3.8286,-3.842,-3.8213,-3.8217,-3.8219,0,-3.6992,-3.7102,-3.7127,-3.7173,-3.7258,-3.7327,-3.742,-3.751,-3.7559,-3.7626,-3.7707,-3.7824,-3.7805,-3.7856,-3.787,-3.7933,-3.8047,-3.7904,-3.7906,-3.7931,-3.8199,-3.8218,-3.8241,-3.8042,-3.8045,-3.8048,-3.8194,0,-3.685,-3.6938,-3.7005,-3.7103,-3.7161,-3.7254,-3.7292,-3.7348,-3.7356,-3.7389,-3.7505,-3.7564,-3.7654,-3.7687,-3.7695,-3.7827,-3.7811,-3.7789,-3.7741,-3.7845,-3.7895,-3.7915,-3.7665,-3.7663,-3.7662,-3.7662,0,0,-3.6672,-3.6799,-3.6822,-3.6914,-3.6965,-3.6962,-3.706,-3.7108,-3.7207,-3.7242,-3.7215,-3.739,-3.7438,-3.7576,-3.7612,-3.7647,-3.7675,-3.7637,-3.7795,-3.7809,-3.7823,-3.7875,-3.7895,-3.766,-3.7659,-3.7659,-3.7659,0,-3.6628,-3.6678,-3.6773,-3.6825,-3.6903,-3.6933,-3.6955,-3.7031,-3.7057,-3.717,-3.7167,-3.7241,-3.7378,-3.7432,-3.7477,-3.762,-3.7614,-3.7644,-3.7711,-3.7783,-3.7799,-3.7813,-3.7867,-3.7886,-3.7656,-3.7656,-3.7656,0,-3.6507,-3.6563,-3.6613,-3.6727,-3.6777,-3.6861,-3.682,-3.691,-3.6973,-3.6964,-3.7078,-3.7115,-3.7188,-3.7312,-3.7369,-3.7346,-3.7557,-3.7495,-3.7503,-3.7511,-3.7583,-3.7602,-3.7619,-3.7395,-3.7394,-3.7393,0,0,-3.6464,-3.6545,-3.6615,-3.672,-3.6752,-3.6798,-3.6845,-3.6859,-3.6925,-3.6951,-3.6999,-3.7063,-3.7144,-3.7197,-3.7274,-3.7404,-3.7423,-3.7462,-3.7474,-3.7484,-3.7497,-3.7572,-3.7591,-3.7389,-3.7389,-3.7388,0,0,-3.6444,-3.6529,-3.6525,-3.6652,-3.6716,-3.6791,-3.6854,-3.6851,-3.6925,-3.6918,-3.6944,-3.6962,-3.7079,-3.7115,-3.7058,-3.7258,-3.7209,-3.7224,-3.723,-3.7247,-3.7259,-3.7249,-3.7024,0,0,0,0,0,-3.6419,-3.6518,-3.6514,-3.6541,-3.6685,-3.6793,-3.6811,-3.6835,-3.6801,-3.6851,-3.6891,-3.688,-3.709,-3.704,-3.7066,-3.713,-3.7337,-3.7346,-3.7355,-3.7395,-3.7411,-3.7425,0,0,0,0,0,0,-3.643,-3.6463,-3.6512,-3.659,-3.6623,-3.6789,-3.6737,-3.6746,-3.6796,-3.6793,-3.6873,-3.6883,-3.6905,-3.7028,-3.7051,-3.7112,-3.7016,-3.7341,-3.7349,-3.7356,-3.74,-3.7414,-3.7425,0,0,0,0,0,-3.6439,-3.6465,-3.6689,-3.6589,-3.6617,-3.6673,-3.6733,-3.6741,-3.678,-3.6842,-3.6851,-3.6794,-3.6906,-3.6927,-3.7042,-3.7101,-3.7,-3.7009,-3.7346,-3.7352,-3.7357,-3.7407,0,0,0,0,0,0,-3.6445,-3.6473,-3.6696,-3.6705,-3.6554,-3.6664,-3.6682,-3.6736,-3.6826,-3.6837,-3.6764,-3.676,-3.6908,-3.6924,-3.694,-3.7096,-3.6987,-3.6996,-3.7002,-3.7351,-3.7355,-3.736,0,0,0,0,0,0,-3.6459,-3.6481,-3.67,-3.6654,-3.6659,-3.6656,-3.6672,-3.6772,-3.6827,-3.6743,-3.6742,-3.6761,-3.6883,-3.6922,-3.6934,-3.709,-3.6978,-3.6986,-3.6992,-3.6995,-3.7354,-3.7358,0,0,0,0,0,0,-3.6468,-3.6488,-3.6652,-3.6655,-3.6659,-3.6767,-3.6745,-3.689,-3.6788,-3.6739,-3.678,-3.6776,-3.6882,-3.6895,-3.6931,-3.7081,-3.7088,-3.6978,-3.6984,-3.6988,-3.699,0,0,0,0,0,0,0,-3.6476,-3.6343,-3.6639,-3.6656,-3.6659,-3.6793,-3.6795,-3.6798,-3.6787,-3.6784,-3.6781,-3.6777,-3.693,-3.6939,-3.6948,-3.7074,0,0,-3.6977,-3.6981,0,0,0,0,0,0,0,0,-3.6336,-3.6341,-3.664,-3.6642,-3.6644,-3.6793,-3.6795,-3.6797,-3.6787,-3.6784,-3.6781,-3.6779,-3.6933,-3.694,-3.6947,0,0,0,0,0,0,0,0,0,0,0,0,0,0,0,-3.664,-3.6641,0,-3.6793,-3.6795,-3.6797,-3.6786,-3.6784,-3.6782,-3.678,-3.6935,-3.6941,-3.6947,0,0,0,0,0,0,0,0,0,0,0,0,0,0,0,0,0,0,0,0,0,0,0,0,0,0,0,0,0,0,0,0,0,0,0,0,0,0,0,0,0,0,0,0,0,0,0,0,0,0,0,0,0,0,0,0,0,0,0,0,0,0,0,0,0,0,0,0,0]}]]]